Location: McCall
(45.0000°N, 116.0000°W)
Time: 16:11:53
(UTC-06:00)

Saudisat 1A - Visible Passes

Search period start: 28 September 2016 00:00
Search period end: 08 October 2016 00:00
Orbit: 564 x 629 km, 64.6° (Epoch: 27 September)

Date Brightness Start Highest point End Pass type
(mag) Time Alt. Az. Time Alt. Az. Time Alt. Az.
30 Sep 11.0 05:52:39 10° SE 05:54:34 13° ESE 05:56:30 10° E visible
01 Oct 10.5 06:00:59 10° SSE 06:04:26 22° ESE 06:07:56 10° ENE visible
02 Oct 9.5 06:10:14 10° S 06:14:23 37° ESE 06:18:36 10° NE visible
03 Oct 8.4 06:19:58 10° SSW 06:24:26 65° ESE 06:28:58 10° NE visible
04 Oct 10.7 04:54:07 12° SE 04:55:43 14° ESE 04:58:10 10° ENE visible
04 Oct 8.0 06:30:51 15° SW 06:34:35 74° NW 06:39:09 10° NNE visible
05 Oct 9.9 05:04:51 24° SE 05:05:36 25° ESE 05:09:18 10° ENE visible
05 Oct 8.5 06:41:35 17° WSW 06:44:49 45° NW 06:49:13 10° NNE visible
06 Oct 9.0 05:15:27 42° ESE 05:15:34 43° ESE 05:19:53 10° NE visible
06 Oct 9.1 06:52:09 15° W 06:55:09 29° NW 06:59:10 10° NNE visible
07 Oct 8.2 05:25:55 71° E 05:25:55 71° E 05:30:11 10° NE visible
07 Oct 9.6 07:02:37 12° W 07:05:36 20° NW 07:09:00 10° NNE visible
